Погода в Ухте

Погода в Ухте : погода сейчас, прогноз погоды и архив. Всё, что Вы хотите узнать о погоде в Ухте!

Поиск расширенной информации на нашем сайте:

Другие новости

Новости СМИ2

Главная страница сайта

Новости сайта

03.07.2017

Напоминаем, что на нашем специализированном сайте Метеоцентр.Азия вы можете получить высокодетализированные автоматические прогнозы погоды по пунктам России, СНГ и мира в авиационном формате (включающие направление и скорость ветра, видимость, явления погоды, количество и форму облачности, нижнюю и верхнюю границу облачности).


Погода в Ухте - сегодня

Время (UTC), дата Ветер
(°,м/с) 
Видим.   Явления Облачность Т
(°С)
Тd
(°С)
f(%) Тe
(°С)
Pmin
(гПа)
dP
(гПа)
Po
(мм)
O2
(г/м3)
Тmin Tmax R s Состояние
почвы
12 19.07.18 060 (СВ) 12000 м    3/3 1000 м 
[Cu hum]
+24.4 +10.9 43 +27  1020.2  -0.1  753  277           
18 19.07.18 030 (СВ) 12000 м    4/3 1000 м верхняя 
[Cu hum|Ci fib]
+19.3 +12.5 65 +25  1020.6  0.6  753  281           
21 19.07.18 040 (СВ) 10 км    4/0 средняя 
[Ac trans]
+15.4 +12.1 81 +20  1022  1.1  754  285           
00 20.07.18 060 (СВ) 12000 м    6/3 1000 м средняя, верхняя 
[Sc|Ac trans|Ci fib]
+14.2 +12 87 +18  1022.9  0.9  755  287           
03 20.07.18 040 (СВ) 12000 м    8/0 верхняя 
[Ci fib]
+17 +13.6 80 +24  1023.6  0.9  756  284  +14.2        сухая 
06 20.07.18 080 (В) 12000 м    10/0 средняя, верхняя 
[Ac trans|Ci fib]
+22.4 +14.6 61 +30  1023.2  -0.1  755  278           
09 20.07.18 090 (В) 12000 м    10/8 1200 м верхняя 
[Cu med, cong|Ci fib]
+23.1 +12.8 52 +28  1023.5  0.2  756  278           
12 20.07.18 090 (В) 12000 м    10/6 1300 м верхняя 
[Cu hum|Ci fib]
+24.3 +12.3 47 +28  1022.9  -0.4  755  277           
18 20.07.18 тихо ()   12000 м    ясно 
+17.6 +12.2 71 +22  1022.9  0.2  755  284           
21 20.07.18 тихо ()   10 км    ясно 
+13.3 +11.4 88 +16  1024.2  0.8  756  288           
00 21.07.18 120 (ЮВ) 12000 м    3/0 средняя 
[Ac trans]
+12.2 +10.9 92 +15  1025.4  1.2  757  290           
03 21.07.18 140 (ЮВ) 12000 м    ясно 
+17.8 +13.5 76 +24  1025.3  0.3  757  284  +12        сухая 
06 21.07.18 120 (ЮВ) 12000 м    ясно 
+22.7 +14.4 59 +30  1026.2  1.1  758  279           
09 21.07.18 120 (ЮВ) 12000 м    3/3 1000 м 
[Cu hum]
+24.7 +12.6 47 +29  1024.2  -1.9  756  277           
12 21.07.18 130 (ЮВ) 12000 м    1/1 1000 м 
[Cu hum]
+25.8 +13.4 46 +32  1022.9  -1.1  755  276           
15 21.07.18 120 (ЮВ) 12000 м    ясно 
+24.6 +12.2 46 +29  1022.2  -0.8  755  277    +25.9       
18 21.07.18 140 (ЮВ) 12000 м    ясно 
+16.7 +14.2 85 +25  1022.4  -0.3  755  284           
21 21.07.18 тихо ()   10 км    ясно 
+12.9 +12.3 96 +17  1022.7  0.1  755  288           
00 22.07.18 тихо ()   12000 м    ясно 
+10.8 +10.6 99 +13  1023.9  1.1  755  291           
03 22.07.18 170 (Ю) 12000 м    ясно 
+18 +12.4 70 +23  1023.9  0.4  756  283  +10.6        сухая 
06 22.07.18 тихо ()   12000 м    ясно 
+23.7 +14.4 56 +31  1023.2  -0.3  756  277           
09 22.07.18 170 (Ю) 12000 м    ясно 
+25.9 +12.4 43 +30  1022.3  -0.8  755  276           
12 22.07.18 170 (Ю) 12000 м    ясно 
+26.8 +13.8 45 +33  1020.7  -1.5  754  274           
15 22.07.18 150 (ЮВ) 12000 м    ясно 
+25.7 +13.4 47 +32  1019.7  -1.1  753  275    +27.1       
18 22.07.18 нст () 12000 м    ясно 
+20.6 +14.9 70 +29  1020.2  0.2  753  279           
Время (UTC), дата Ветер
(°,м/с) 
Видим.   Явления Облачность Т
(°С)
Тd
(°С)
f(%) Тe
(°С)
Pmin
(гПа)
dP
(гПа)
Po
(мм)
O2
(г/м3)
Тmin Tmax R s Состояние
почвы

Для получения пояснительной информации подведите курсор к названию столбца.

ПОГОДА в Ухте - архив

Всё, что Вы хотите узнать о погоде в Ухте - удобно и подробно!

Выберите нужную дату (начиная с 1 января 2015* года) и нажмите кнопку "Найти".
Будут отображены архивные сводки погоды по пункту Ухта, начиная с указанной даты.


Отображать данные в формате CSV (для использования в таблицах Excel)


Внимание! Наш архив погоды предназначен исключительно для личного некоммерческого использования в познавательных целях. Если Вам необходимы официальные справки о состоянии погоды (для производственных, юридических, коммерческих и т.п. целей), обращайтесь в органы Росгидромета.

*Примечание: данная дата относится к архиву по метеостанциям СССР (Россия, СНГ, Балтия).
Архив по метеостанциям Зарубежной Европы и Азии (кроме Китая) хранится 10 дней, по другим регионам земного шара (Китай, Африка, Америка, Австралия, Океания) - 1 день.

Ухта - район местоположения метеостанции


Название, широта, долгота, высота метеостанции:
Ухта 63.6°ш. 53.8°д. 137 м над ур. моря [Российская Федерация]

Дополнительная информация

В oтличие oт бoльшинства пoгoдных сайтoв мы публикуем пoдрoбную метеoинфoрмацию в детальнoм прoфессиoнальнoм фoрмате.

Характеристики температуры и влажнoсти вoздуха измеряются на высoте 2 м в тени вдали oт зданий и деревьев.
Скoрoсть ветра измеряется на высoте 10 м (на урoвне рoста челoвека скoрoсть ветра ниже в 1.5-2 раза). Если метеoстанция нахoдится в гoрoде или в лесу, тo скoрoсть ветра занижена на 2-4 м/с пo сравнению с oткрытым местoм. Скoрoсть ветра над акватoриями крупных рек и oзёр, а также на вершинах хoлмoв на 2-5 м/с выше, чем в oбычных услoвиях.
Атмoсфернoе давление в разных тoчках местнoсти мoжет значительнo oтличаться oт давления на метеoстанции, в зависимoсти oт услoвий рельефа (при пoдъёме на 10 м давление пoнижается примернo на 1 мм рт.ст.).